Starlink 32289

operational
NORAD ID: 60737 Int'l Des: 2024-152 Owner: SPXS Country: US Constellation: starlink
LEOCIRCULAR

关于 Starlink 32289

正在加载描述...

实时位置

正在加载3D地球...

即将过境

高度历史

Altitude vs Time

uPlot chart will show altitude changes over time

两行轨道根数

1 60737U 24152T 26037.05315245 -.00000216 00000-0 48563-5 0 9991
2 60737 53.1597 55.6267 0001775 99.7622 260.3579 15.30193303 82001
Epoch: Feb 6, 2026 • Age: 24 hours

当前状态

高度 476.8 km
速度 7.63 km/s
星下点 32.83°N, 72°W
发射日期 Aug 28, 2024
运行时间 1.4 years
类型 internet

技术详情

分类 Payload
质量 730.00 kg
干质量 700.00 kg
总质量 730.00 kg
长度 0.30 m
直径 4.10 m
跨度 29.00 m
形状 Box + pan
制造商 SPXS
平台类型 Starlink V2M
阶段状态 In Orbit
所有者/国家 SPXS/US

大型星座

Loading constellations...